Погода в Промыслах

Россия / Пермский край     58°33′49″N   59°09′18″E
темп.,
°C
ветер,
м/с
пор.,
м/с
влажн.,
%
обл.,
%
осадки,
мм/ч
давл.,
гПа
погр.,
м
18 мая, вт
вт1823:00+17з116594 0.1 101422
02:00+17з2361100 0.0 101382
05:00+14зсз277962 0.0 1014209
08:00+17ссз456085 0.0 10151085
11:00+14всв5576100 0.2 1018611
14:00+13св467692 0.1 1020501
17:00+16св455791 0.1 10201161
20:00+14св366038 0.0 10221172
19 мая, ср
ср1923:00+9всв27830 0.0 1024168
02:00+8св118632 0.0 102510
05:00+7св11905 0.0 102610
08:00+12в126473 0.0 1026453
11:00+17в224672 0.0 10261203
14:00+20в21369 0.0 10241596
17:00+21в11335 0.0 10231839
20:00+18юв2346100 0.0 102350
20 мая, чт
чт2023:00+13юз2255100 0.0 102415
02:00+11зюз21625 0.0 102312
05:00+10зюз226733 0.0 102423
08:00+17зюз36487 0.0 1023323
11:00+21з34345 0.0 10221226
14:00+24з34274 0.0 10201687
17:00+25з33260 0.0 10201798
20:00+21зюз22420 0.0 101948
21 мая, пт
пт2123:00+15з11550 0.0 102011
02:00+14з11600 0.0 102010
05:00+13з11643 0.0 102010
08:00+20юз12450 0.0 1020258
11:00+24ююз35290 0.0 10191801
14:00+26ююз45240 0.0 10182363
17:00+26ююз45240 0.0 10172514
20:00+22юз38360 0.0 1017381
22 мая, сб
сб2223:00+15юз22510 0.0 101818
02:00+14зюз22668 0.0 101817
05:00+13юз2484100 0.3 101892
08:00+17зюз4969100 0.0 1018599
11:00+21зюз695025 0.1 10181851
14:00+23зюз693550 0.0 10172347
17:00+23зюз6935100 0.0 10172489
20:00+20зюз485099 0.0 1018993